Voltar ao catálogo

STARLINK-3860

AtivoComunicaçõesVLEO
NORAD 52477·PAYLOAD·🇺🇸 United States

Lançado May 6, 2022 de Cape Canaveral Space Force Station

Loading…

Próximas Passagens (próximas 24 horas)

TLE

AtualizadoSource: CelesTrak SupGP

Época: Sep 15, 2026, 02:39 UTC

1 52477C 22049AC  26258.11090278 -.00010895  00000+0 -32183-3 0  2585
2 52477  53.1572 268.5619 0001292  93.9627 157.8800 15.34401197    12

Acompanhe STARLINK-3860 em tempo real com AllMySat

Download on the App Store